sat.trackr.live / text

‹ back to catalog

GSAT0207 (GALILEO 15)

NORAD 41859 · 2016-069A

PAYLOAD ACTIVE UNKNOWN

§ Identity

Operator
Country
ESA
Launch date
2016-11-17
Launch site
FRGUI
Launch vehicle
Mass (kg)
RCS (m²)
18.36

Purposes: earth_obs, nav

External: N2YO · Heavens-Above · Gunter

§ Orbital elements

Epoch: 2026-09-11T13:26:53.992896Z

Period
844.70 min
Inclination
55.5533°
Eccentricity
0.0003037
Mean motion
1.70473750 rev/d
Perigee alt
23,213.2 km
Apogee alt
23,231.2 km
Semi-major
29,600.3 km
B*
0.0000e+0
RAAN
98.6945°
Arg perigee
359.7632°
Mean anomaly
0.3287°
Rev number
6,087

§ Raw data

GSAT0207 (GALILEO 15)1 41859U 16069A   26254.56034714  .00000015  00000+0  00000+0 0  99922 41859  55.5533  98.6945 0003037 359.7632   0.3287  1.70473750 60879

JSON: /api/v1/satellites/41859 · /tle

For live sub-satellite position, see the globe view (requires WebGL).

§ Visibility from observer

Set your observer location to see the next 7 days of passes ≥ 10°. The values pass through the URL so the page stays shareable.

No JS? Fill the form by hand. The geolocation button needs JavaScript.